Time,TemperatureF,DewpointF,PressureIn,WindDirection,WindDirectionDegrees,WindSpeedMPH,WindSpeedGustMPH,Humidity,HourlyPrecipIn,Conditions,Clouds,dailyrainin,SoftwareType,DateUTC
2013-07-19 00:01:00,56.2,48.0,29.93,SE,127,4.0,7.0,74,0.00,,---,0.00,VWS V13.00,2013-07-19 06:01:00,
2013-07-19 00:06:00,55.9,47.7,29.93,SE,127,4.0,7.0,74,0.00,,---,0.00,VWS V13.00,2013-07-19 06:06:00,
2013-07-19 00:11:00,55.7,47.9,29.93,SE,126,0.0,4.0,75,0.00,,---,0.00,VWS V13.00,2013-07-19 06:11:00,
2013-07-19 00:16:00,55.4,47.6,29.93,SE,127,0.0,4.0,75,0.00,,---,0.00,VWS V13.00,2013-07-19 06:16:00,
2013-07-19 00:21:00,55.0,47.6,29.93,SE,127,7.0,7.0,76,0.00,,---,0.00,VWS V13.00,2013-07-19 06:21:00,
2013-07-19 00:26:00,54.7,47.6,29.93,SE,128,6.0,7.0,77,0.00,,---,0.00,VWS V13.00,2013-07-19 06:26:00,
2013-07-19 00:31:00,54.5,47.5,29.93,SE,129,5.0,9.0,77,0.00,,---,0.00,VWS V13.00,2013-07-19 06:31:00,
2013-07-19 00:36:00,54.3,47.2,29.93,SE,130,6.0,9.0,77,0.00,,---,0.00,VWS V13.00,2013-07-19 06:36:00,
2013-07-19 00:41:00,54.1,47.4,29.94,SE,129,5.0,7.0,78,0.00,,---,0.00,VWS V13.00,2013-07-19 06:41:00,
2013-07-19 00:46:00,54.0,47.3,29.94,SE,130,5.0,7.0,78,0.00,,---,0.00,VWS V13.00,2013-07-19 06:46:00,
2013-07-19 00:51:00,53.7,47.0,29.94,SE,130,2.0,7.0,78,0.00,,---,0.00,VWS V13.00,2013-07-19 06:51:00,
2013-07-19 00:56:00,53.5,47.2,29.93,SE,132,8.0,9.0,79,0.00,,---,0.00,VWS V13.00,2013-07-19 06:56:00,
2013-07-19 01:01:00,53.4,47.1,29.93,SSE,153,6.0,10.0,79,0.00,,---,0.00,VWS V13.00,2013-07-19 07:01:00,
2013-07-19 01:06:00,53.5,47.2,29.93,SSE,153,7.0,10.0,79,0.00,,---,0.00,VWS V13.00,2013-07-19 07:06:00,
2013-07-19 01:11:00,53.6,46.9,29.93,SSE,153,6.0,9.0,78,0.00,,---,0.00,VWS V13.00,2013-07-19 07:11:00,
2013-07-19 01:16:00,53.5,46.8,29.93,SSE,153,7.0,9.0,78,0.00,,---,0.00,VWS V13.00,2013-07-19 07:16:00,
2013-07-19 01:21:00,53.4,46.7,29.93,SSE,153,5.0,9.0,78,0.00,,---,0.00,VWS V13.00,2013-07-19 07:21:00,
2013-07-19 01:26:00,53.3,47.0,29.94,SSE,151,6.0,10.0,79,0.00,,---,0.00,VWS V13.00,2013-07-19 07:26:00,
2013-07-19 01:31:00,53.2,46.9,29.94,SSE,148,7.0,10.0,79,0.00,,---,0.00,VWS V13.00,2013-07-19 07:31:00,
2013-07-19 01:36:00,53.1,46.8,29.94,SSE,148,9.0,10.0,79,0.00,,---,0.00,VWS V13.00,2013-07-19 07:36:00,
2013-07-19 01:41:00,53.0,46.7,29.94,SSE,155,7.0,10.0,79,0.00,,---,0.00,VWS V13.00,2013-07-19 07:41:00,
2013-07-19 01:46:00,52.9,46.6,29.94,SSE,156,7.0,10.0,79,0.00,,---,0.00,VWS V13.00,2013-07-19 07:46:00,
2013-07-19 01:51:00,52.8,46.5,29.94,SSE,156,6.0,10.0,79,0.00,,---,0.00,VWS V13.00,2013-07-19 07:51:00,
2013-07-19 01:56:00,52.7,46.4,29.93,SSE,155,6.0,10.0,79,0.00,,---,0.00,VWS V13.00,2013-07-19 07:56:00,
2013-07-19 02:01:00,52.7,46.4,29.93,SSE,153,5.0,10.0,79,0.00,,---,0.00,VWS V13.00,2013-07-19 08:01:00,
2013-07-19 02:06:00,52.6,46.6,29.93,SSE,150,7.0,10.0,80,0.00,,---,0.00,VWS V13.00,2013-07-19 08:06:00,
2013-07-19 02:10:00,52.4,46.4,29.93,SSE,153,11.0,12.0,80,0.00,,---,0.00,VWS V13.00,2013-07-19 08:10:00,
2013-07-19 02:15:00,52.3,46.3,29.93,SSE,155,9.0,12.0,80,0.00,,---,0.00,VWS V13.00,2013-07-19 08:15:00,
2013-07-19 02:20:00,52.2,46.2,29.93,SSE,156,6.0,12.0,80,0.00,,---,0.00,VWS V13.00,2013-07-19 08:20:00,
2013-07-19 02:25:00,52.1,46.1,29.95,SSE,156,5.0,12.0,80,0.00,,---,0.00,VWS V13.00,2013-07-19 08:25:00,
2013-07-19 02:30:00,51.9,45.9,29.95,SSE,156,2.0,12.0,80,0.00,,---,0.00,VWS V13.00,2013-07-19 08:30:00,
2013-07-19 02:35:00,51.9,45.9,29.95,SSE,156,5.0,12.0,80,0.00,,---,0.00,VWS V13.00,2013-07-19 08:35:00,
2013-07-19 02:41:00,51.9,45.9,29.94,SSE,155,4.0,7.0,80,0.00,,---,0.00,VWS V13.00,2013-07-19 08:41:00,
2013-07-19 02:45:00,51.4,45.8,29.94,SSE,155,3.0,7.0,81,0.00,,---,0.00,VWS V13.00,2013-07-19 08:45:00,
2013-07-19 02:50:00,50.8,45.5,29.94,SSE,155,4.0,7.0,82,0.00,,---,0.00,VWS V13.00,2013-07-19 08:50:00,
2013-07-19 02:55:00,50.5,45.5,29.94,SSE,155,0.0,7.0,83,0.00,,---,0.00,VWS V13.00,2013-07-19 08:55:00,
2013-07-19 03:00:00,50.2,45.6,29.94,SSE,155,0.0,7.0,84,0.00,,---,0.00,VWS V13.00,2013-07-19 09:00:00,
2013-07-19 03:05:00,50.2,45.6,29.94,SSE,155,3.0,7.0,84,0.00,,---,0.00,VWS V13.00,2013-07-19 09:05:00,
2013-07-19 03:10:00,50.5,45.5,29.95,SSE,155,4.0,6.0,83,0.00,,---,0.00,VWS V13.00,2013-07-19 09:10:00,
2013-07-19 03:15:00,50.7,45.4,29.95,SSE,155,2.0,6.0,82,0.00,,---,0.00,VWS V13.00,2013-07-19 09:15:00,
2013-07-19 03:20:00,50.7,45.4,29.95,SSE,155,0.0,6.0,82,0.00,,---,0.00,VWS V13.00,2013-07-19 09:20:00,
2013-07-19 03:25:00,50.5,45.5,29.94,SSE,155,0.0,6.0,83,0.00,,---,0.00,VWS V13.00,2013-07-19 09:25:00,
2013-07-19 03:30:00,50.0,45.0,29.94,SSE,155,7.0,7.0,83,0.00,,---,0.00,VWS V13.00,2013-07-19 09:30:00,
2013-07-19 03:35:00,49.9,45.3,29.94,SSE,155,8.0,9.0,84,0.00,,---,0.00,VWS V13.00,2013-07-19 09:35:00,
2013-07-19 03:40:00,50.2,45.2,29.95,SSE,153,4.0,7.0,83,0.00,,---,0.00,VWS V13.00,2013-07-19 09:40:00,
2013-07-19 03:45:00,50.2,45.2,29.95,SSE,152,6.0,8.0,83,0.00,,---,0.00,VWS V13.00,2013-07-19 09:45:00,
2013-07-19 03:50:00,50.0,45.0,29.95,SSE,152,4.0,8.0,83,0.00,,---,0.00,VWS V13.00,2013-07-19 09:50:00,
2013-07-19 03:55:00,49.7,45.1,29.94,SSE,152,5.0,8.0,84,0.00,,---,0.00,VWS V13.00,2013-07-19 09:55:00,
2013-07-19 04:00:00,49.6,45.0,29.94,SSE,153,5.0,8.0,84,0.00,,---,0.00,VWS V13.00,2013-07-19 10:00:00,
2013-07-19 04:05:00,49.6,45.0,29.94,SSE,153,8.0,10.0,84,0.00,,---,0.00,VWS V13.00,2013-07-19 10:05:00,
2013-07-19 04:10:00,49.7,45.1,29.93,SSE,155,11.0,11.0,84,0.00,,---,0.00,VWS V13.00,2013-07-19 10:10:00,
2013-07-19 04:15:00,50.1,45.2,29.93,SSE,159,12.0,13.0,83,0.00,,---,0.00,VWS V13.00,2013-07-19 10:15:00,
2013-07-19 04:20:00,50.7,45.4,29.93,SSE,149,11.0,13.0,82,0.00,,---,0.00,VWS V13.00,2013-07-19 10:20:00,
2013-07-19 04:25:00,51.0,45.1,29.93,SE,142,10.0,13.0,80,0.00,,---,0.00,VWS V13.00,2013-07-19 10:25:00,
2013-07-19 04:30:00,51.0,45.1,29.93,SE,140,9.0,13.0,80,0.00,,---,0.00,VWS V13.00,2013-07-19 10:30:00,
2013-07-19 04:35:00,50.8,45.2,29.93,SE,141,6.0,13.0,81,0.00,,---,0.00,VWS V13.00,2013-07-19 10:35:00,
2013-07-19 04:40:00,50.5,44.9,29.93,SE,142,5.0,7.0,81,0.00,,---,0.00,VWS V13.00,2013-07-19 10:40:00,
2013-07-19 04:45:00,50.4,45.1,29.93,SE,141,10.0,10.0,82,0.00,,---,0.00,VWS V13.00,2013-07-19 10:45:00,
2013-07-19 04:50:00,50.4,45.1,29.93,SE,140,6.0,10.0,82,0.00,,---,0.00,VWS V13.00,2013-07-19 10:50:00,
2013-07-19 04:55:00,50.2,44.9,29.92,SE,141,5.0,10.0,82,0.00,,---,0.00,VWS V13.00,2013-07-19 10:55:00,
2013-07-19 05:00:00,50.0,44.7,29.92,SE,141,7.0,10.0,82,0.00,,---,0.00,VWS V13.00,2013-07-19 11:00:00,
2013-07-19 05:05:00,49.7,44.8,29.92,SE,141,10.0,10.0,83,0.00,,---,0.00,VWS V13.00,2013-07-19 11:05:00,
2013-07-19 05:10:00,49.5,44.6,29.92,SE,138,7.0,12.0,83,0.00,,---,0.00,VWS V13.00,2013-07-19 11:10:00,
2013-07-19 05:15:00,49.4,44.8,29.92,SE,145,9.0,12.0,84,0.00,,---,0.00,VWS V13.00,2013-07-19 11:15:00,
2013-07-19 05:20:00,49.3,44.7,29.92,SE,142,6.0,12.0,84,0.00,,---,0.00,VWS V13.00,2013-07-19 11:20:00,
2013-07-19 05:25:00,49.4,44.8,29.93,SE,142,7.0,12.0,84,0.00,,---,0.00,VWS V13.00,2013-07-19 11:25:00,
2013-07-19 05:30:00,49.4,44.8,29.93,SE,143,2.0,12.0,84,0.00,,---,0.00,VWS V13.00,2013-07-19 11:30:00,
2013-07-19 05:35:00,49.2,44.6,29.93,SE,140,6.0,12.0,84,0.00,,---,0.00,VWS V13.00,2013-07-19 11:35:00,
2013-07-19 05:40:00,49.4,44.5,29.93,SSE,148,7.0,10.0,83,0.00,,---,0.00,VWS V13.00,2013-07-19 11:40:00,
2013-07-19 05:45:00,49.5,44.6,29.93,SSE,148,6.0,10.0,83,0.00,,---,0.00,VWS V13.00,2013-07-19 11:45:00,
2013-07-19 05:50:00,49.5,44.6,29.93,SE,146,6.0,10.0,83,0.00,,---,0.00,VWS V13.00,2013-07-19 11:50:00,
2013-07-19 05:55:00,49.6,44.7,29.93,SE,143,11.0,11.0,83,0.00,,---,0.00,VWS V13.00,2013-07-19 11:55:00,
2013-07-19 06:00:00,49.8,44.5,29.93,SE,142,9.0,12.0,82,0.00,,---,0.00,VWS V13.00,2013-07-19 12:00:00,
2013-07-19 06:05:00,50.0,44.7,29.93,SE,141,6.0,12.0,82,0.00,,---,0.00,VWS V13.00,2013-07-19 12:05:00,
2013-07-19 06:10:00,50.1,44.8,29.93,SE,141,6.0,10.0,82,0.00,,---,0.00,VWS V13.00,2013-07-19 12:10:00,
2013-07-19 06:15:00,50.2,44.9,29.93,SE,143,6.0,11.0,82,0.00,,---,0.00,VWS V13.00,2013-07-19 12:15:00,
2013-07-19 06:20:00,50.4,45.1,29.93,SE,138,9.0,12.0,82,0.00,,---,0.00,VWS V13.00,2013-07-19 12:20:00,
2013-07-19 06:25:00,50.8,45.2,29.92,SE,137,11.0,12.0,81,0.00,,---,0.00,VWS V13.00,2013-07-19 12:25:00,
2013-07-19 06:30:00,51.1,45.5,29.92,SE,136,10.0,12.0,81,0.00,,---,0.00,VWS V13.00,2013-07-19 12:30:00,
2013-07-19 06:35:00,51.4,45.5,29.92,SE,138,9.0,12.0,80,0.00,,---,0.00,VWS V13.00,2013-07-19 12:35:00,
2013-07-19 06:40:00,51.8,45.8,29.92,SE,137,10.0,11.0,80,0.00,,---,0.00,VWS V13.00,2013-07-19 12:40:00,
2013-07-19 06:45:00,52.1,45.8,29.92,SE,140,7.0,12.0,79,0.00,,---,0.00,VWS V13.00,2013-07-19 12:45:00,
2013-07-19 06:50:00,52.5,46.2,29.92,SE,134,8.0,12.0,79,0.00,,---,0.00,VWS V13.00,2013-07-19 12:50:00,
2013-07-19 06:55:00,52.7,46.4,29.92,SE,137,8.0,12.0,79,0.00,,---,0.00,VWS V13.00,2013-07-19 12:55:00,
2013-07-19 07:00:00,53.0,46.3,29.92,SE,132,13.0,14.0,78,0.00,,---,0.00,VWS V13.00,2013-07-19 13:00:00,
2013-07-19 07:05:00,53.1,46.8,29.92,SE,130,7.0,14.0,79,0.00,,---,0.00,VWS V13.00,2013-07-19 13:05:00,
2013-07-19 07:10:00,53.6,46.9,29.92,SE,136,10.0,12.0,78,0.00,,---,0.00,VWS V13.00,2013-07-19 13:10:00,
2013-07-19 07:15:00,54.1,47.1,29.92,SE,128,5.0,12.0,77,0.00,,---,0.00,VWS V13.00,2013-07-19 13:15:00,
2013-07-19 07:20:00,54.6,47.5,29.92,ESE,122,4.0,12.0,77,0.00,,---,0.00,VWS V13.00,2013-07-19 13:20:00,
2013-07-19 07:25:00,55.0,47.2,29.90,SE,136,8.0,12.0,75,0.00,,---,0.00,VWS V13.00,2013-07-19 13:25:00,
2013-07-19 07:26:00,55.1,47.3,29.90,SE,134,4.0,12.0,75,0.00,,---,0.00,VWS V13.00,2013-07-19 13:26:00,
2013-07-19 07:31:00,55.6,47.8,29.90,SE,129,5.0,12.0,75,0.00,,---,0.00,VWS V13.00,2013-07-19 13:31:00,
2013-07-19 07:36:00,56.2,48.0,29.90,SE,136,9.0,12.0,74,0.00,,---,0.00,VWS V13.00,2013-07-19 13:36:00,
2013-07-19 07:41:00,56.8,47.9,29.90,SE,132,9.0,11.0,72,0.00,,---,0.00,VWS V13.00,2013-07-19 13:41:00,
2013-07-19 07:46:00,57.2,49.4,29.90,SE,133,6.0,11.0,75,0.00,,---,0.00,VWS V13.00,2013-07-19 13:46:00,
2013-07-19 07:51:00,57.9,49.7,29.90,SE,134,5.0,11.0,74,0.00,,---,0.00,VWS V13.00,2013-07-19 13:51:00,
2013-07-19 07:56:00,58.6,49.6,29.91,SE,133,5.0,11.0,72,0.00,,---,0.00,VWS V13.00,2013-07-19 13:56:00,
2013-07-19 08:01:00,59.0,50.4,29.91,SE,133,5.0,11.0,73,0.00,,---,0.00,VWS V13.00,2013-07-19 14:01:00,
2013-07-19 08:06:00,59.4,50.4,29.91,SE,133,6.0,11.0,72,0.00,,---,0.00,VWS V13.00,2013-07-19 14:06:00,
2013-07-19 08:11:00,59.8,50.4,29.90,SE,132,7.0,7.0,71,0.00,,---,0.00,VWS V13.00,2013-07-19 14:11:00,
2013-07-19 08:16:00,60.4,51.0,29.90,SE,132,3.0,9.0,71,0.00,,---,0.00,VWS V13.00,2013-07-19 14:16:00,
2013-07-19 08:21:00,61.2,51.3,29.90,SE,132,4.0,9.0,70,0.00,,---,0.00,VWS V13.00,2013-07-19 14:21:00,
2013-07-19 08:26:00,62.0,52.9,29.90,SE,132,3.0,9.0,72,0.00,,---,0.00,VWS V13.00,2013-07-19 14:26:00,
2013-07-19 08:31:00,62.7,52.4,29.90,SE,132,2.0,9.0,69,0.00,,---,0.00,VWS V13.00,2013-07-19 14:31:00,
2013-07-19 08:36:00,63.5,53.5,29.90,SE,132,3.0,9.0,70,0.00,,---,0.00,VWS V13.00,2013-07-19 14:36:00,
2013-07-19 08:41:00,64.2,53.4,29.88,SE,132,0.0,5.0,68,0.00,,---,0.00,VWS V13.00,2013-07-19 14:41:00,
2013-07-19 08:46:00,64.8,54.4,29.88,SE,132,0.0,5.0,69,0.00,,---,0.00,VWS V13.00,2013-07-19 14:46:00,
2013-07-19 08:51:00,65.6,54.4,29.88,SE,132,0.0,5.0,67,0.00,,---,0.00,VWS V13.00,2013-07-19 14:51:00,
2013-07-19 08:56:00,66.4,53.0,29.89,SE,132,5.0,6.0,62,0.00,,---,0.00,VWS V13.00,2013-07-19 14:56:00,
2013-07-19 09:01:00,67.0,51.8,29.89,SE,132,2.0,6.0,58,0.00,,---,0.00,VWS V13.00,2013-07-19 15:01:00,
2013-07-19 09:06:00,67.9,53.5,29.89,SE,132,2.0,6.0,60,0.00,,---,0.00,VWS V13.00,2013-07-19 15:06:00,
2013-07-19 09:11:00,68.6,53.7,29.87,SE,132,2.0,3.0,59,0.00,,---,0.00,VWS V13.00,2013-07-19 15:11:00,
2013-07-19 09:16:00,69.4,54.5,29.87,SE,132,3.0,3.0,59,0.00,,---,0.00,VWS V13.00,2013-07-19 15:16:00,
2013-07-19 09:21:00,70.3,54.4,29.87,SE,132,0.0,3.0,57,0.00,,---,0.00,VWS V13.00,2013-07-19 15:21:00,
2013-07-19 09:26:00,71.2,52.7,29.86,SE,132,0.0,3.0,52,0.00,,---,0.00,VWS V13.00,2013-07-19 15:26:00,
2013-07-19 09:31:00,71.8,53.2,29.86,SE,132,0.0,3.0,52,0.00,,---,0.00,VWS V13.00,2013-07-19 15:31:00,
2013-07-19 09:36:00,72.4,53.8,29.86,East,90,0.0,3.0,52,0.00,,---,0.00,VWS V13.00,2013-07-19 15:36:00,
2013-07-19 09:41:00,73.1,53.9,29.84,East,91,4.0,4.0,51,0.00,,---,0.00,VWS V13.00,2013-07-19 15:41:00,
2013-07-19 09:46:00,73.7,53.9,29.84,East,91,2.0,4.0,50,0.00,,---,0.00,VWS V13.00,2013-07-19 15:46:00,
2013-07-19 09:51:00,74.1,53.2,29.84,East,91,0.0,4.0,48,0.00,,---,0.00,VWS V13.00,2013-07-19 15:51:00,
2013-07-19 09:56:00,74.6,53.1,29.87,East,91,0.0,4.0,47,0.00,,---,0.00,VWS V13.00,2013-07-19 15:56:00,
2013-07-19 10:01:00,75.0,52.2,29.87,East,91,0.0,4.0,45,0.00,,---,0.00,VWS V13.00,2013-07-19 16:01:00,
2013-07-19 10:06:00,75.5,52.1,29.87,East,91,0.0,4.0,44,0.00,,---,0.00,VWS V13.00,2013-07-19 16:06:00,
2013-07-19 10:11:00,76.1,52.6,29.85,East,91,0.0,0.0,44,0.00,,---,0.00,VWS V13.00,2013-07-19 16:11:00,
2013-07-19 10:16:00,76.6,53.1,29.85,South,179,0.0,0.0,44,0.00,,---,0.00,VWS V13.00,2013-07-19 16:16:00,
2013-07-19 10:21:00,77.1,52.3,29.85,SE,146,5.0,5.0,42,0.00,,---,0.00,VWS V13.00,2013-07-19 16:21:00,
2013-07-19 10:26:00,77.6,52.7,29.84,SE,146,0.0,5.0,42,0.00,,---,0.00,VWS V13.00,2013-07-19 16:26:00,
2013-07-19 10:31:00,78.0,53.1,29.84,NNW,346,0.0,5.0,42,0.00,,---,0.00,VWS V13.00,2013-07-19 16:31:00,
2013-07-19 10:36:00,78.1,51.2,29.84,NW,318,0.0,5.0,39,0.00,,---,0.00,VWS V13.00,2013-07-19 16:36:00,
2013-07-19 10:41:00,78.5,52.2,29.84,ENE,75,0.0,2.0,40,0.00,,---,0.00,VWS V13.00,2013-07-19 16:41:00,
2013-07-19 10:46:00,78.8,53.1,29.84,ENE,75,0.0,2.0,41,0.00,,---,0.00,VWS V13.00,2013-07-19 16:46:00,
2013-07-19 10:51:00,79.4,53.7,29.84,ENE,57,0.0,2.0,41,0.00,,---,0.00,VWS V13.00,2013-07-19 16:51:00,
2013-07-19 10:56:00,79.8,52.7,29.84,NE,34,0.0,7.0,39,0.00,,---,0.00,VWS V13.00,2013-07-19 16:56:00,
2013-07-19 11:01:00,79.9,50.6,29.84,WSW,241,11.0,12.0,36,0.00,,---,0.00,VWS V13.00,2013-07-19 17:01:00,
2013-07-19 11:06:00,80.4,47.9,29.84,WSW,238,5.0,12.0,32,0.00,,---,0.00,VWS V13.00,2013-07-19 17:06:00,
2013-07-19 11:11:00,80.7,49.8,29.84,WSW,249,9.0,14.0,34,0.00,,---,0.00,VWS V13.00,2013-07-19 17:11:00,
2013-07-19 11:16:00,81.0,50.0,29.84,West,261,6.0,15.0,34,0.00,,---,0.00,VWS V13.00,2013-07-19 17:16:00,
2013-07-19 11:21:00,81.1,47.6,29.84,West,259,15.0,17.0,31,0.00,,---,0.00,VWS V13.00,2013-07-19 17:21:00,
2013-07-19 11:26:00,81.1,47.6,29.83,West,267,10.0,17.0,31,0.00,,---,0.00,VWS V13.00,2013-07-19 17:26:00,
2013-07-19 11:31:00,81.2,44.1,29.83,WNW,288,9.0,17.0,27,0.00,,---,0.00,VWS V13.00,2013-07-19 17:31:00,
2013-07-19 11:36:00,81.4,43.3,29.83,WSW,256,4.0,20.0,26,0.00,,---,0.00,VWS V13.00,2013-07-19 17:36:00,
2013-07-19 11:41:00,81.5,42.3,29.83,West,279,9.0,17.0,25,0.00,,---,0.00,VWS V13.00,2013-07-19 17:41:00,
2013-07-19 11:46:00,81.5,47.1,29.83,WNW,290,14.0,17.0,30,0.00,,---,0.00,VWS V13.00,2013-07-19 17:46:00,
2013-07-19 11:51:00,81.4,44.2,29.83,NW,304,5.0,17.0,27,0.00,,---,0.00,VWS V13.00,2013-07-19 17:51:00,
2013-07-19 11:56:00,81.5,46.2,29.84,SSW,196,5.0,17.0,29,0.00,,---,0.00,VWS V13.00,2013-07-19 17:56:00,
2013-07-19 12:01:00,81.7,47.3,29.84,WSW,248,12.0,17.0,30,0.00,,---,0.00,VWS V13.00,2013-07-19 18:01:00,
2013-07-19 12:06:00,81.8,46.5,29.84,West,263,11.0,17.0,29,0.00,,---,0.00,VWS V13.00,2013-07-19 18:06:00,
2013-07-19 12:11:00,81.8,45.5,29.83,NW,319,5.0,10.0,28,0.00,,---,0.00,VWS V13.00,2013-07-19 18:11:00,
2013-07-19 12:16:00,81.7,44.5,29.83,NW,318,3.0,10.0,27,0.00,,---,0.00,VWS V13.00,2013-07-19 18:16:00,
2013-07-19 12:21:00,81.6,44.4,29.83,NNW,329,7.0,14.0,27,0.00,,---,0.00,VWS V13.00,2013-07-19 18:21:00,
2013-07-19 12:26:00,81.6,46.3,29.83,NW,311,5.0,14.0,29,0.00,,---,0.00,VWS V13.00,2013-07-19 18:26:00,
2013-07-19 12:31:00,81.7,48.2,29.83,WNW,290,9.0,17.0,31,0.00,,---,0.00,VWS V13.00,2013-07-19 18:31:00,
2013-07-19 12:36:00,81.8,49.1,29.83,WNW,290,3.0,17.0,32,0.00,,---,0.00,VWS V13.00,2013-07-19 18:36:00,
2013-07-19 12:41:00,81.9,48.3,29.83,West,266,9.0,14.0,31,0.00,,---,0.00,VWS V13.00,2013-07-19 18:41:00,
2013-07-19 12:46:00,81.9,48.3,29.83,West,272,18.0,22.0,31,0.00,,---,0.00,VWS V13.00,2013-07-19 18:46:00,
2013-07-19 12:51:00,81.9,48.3,29.83,WNW,288,11.0,22.0,31,0.00,,---,0.00,VWS V13.00,2013-07-19 18:51:00,
2013-07-19 12:56:00,81.9,48.3,29.83,West,266,7.0,22.0,31,0.00,,---,0.00,VWS V13.00,2013-07-19 18:56:00,
2013-07-19 13:01:00,82.3,49.5,29.83,WNW,296,12.0,22.0,32,0.00,,---,0.00,VWS V13.00,2013-07-19 19:01:00,
2013-07-19 13:06:00,82.5,48.8,29.83,NW,310,5.0,22.0,31,0.00,,---,0.00,VWS V13.00,2013-07-19 19:06:00,
2013-07-19 13:11:00,81.8,49.1,29.82,NW,304,4.0,14.0,32,0.00,,---,0.00,VWS V13.00,2013-07-19 19:11:00,
2013-07-19 13:16:00,81.8,49.1,29.82,NNW,336,9.0,27.0,32,0.00,,---,0.00,VWS V13.00,2013-07-19 19:16:00,
2013-07-19 13:21:00,81.9,49.2,29.82,West,279,6.0,27.0,32,0.00,,---,0.00,VWS V13.00,2013-07-19 19:21:00,
2013-07-19 13:26:00,81.3,49.5,29.82,NW,317,17.0,27.0,33,0.00,,---,0.00,VWS V13.00,2013-07-19 19:26:00,
2013-07-19 13:31:00,81.0,50.8,29.82,NW,315,9.0,27.0,35,0.00,,---,0.00,VWS V13.00,2013-07-19 19:31:00,
2013-07-19 13:36:00,81.4,47.9,29.82,NNW,341,8.0,27.0,31,0.00,,---,0.00,VWS V13.00,2013-07-19 19:36:00,
2013-07-19 13:41:00,80.9,46.6,29.82,NNW,332,13.0,15.0,30,0.00,,---,0.00,VWS V13.00,2013-07-19 19:41:00,
2013-07-19 13:46:00,80.0,44.9,29.82,NNW,347,10.0,18.0,29,0.00,,---,0.00,VWS V13.00,2013-07-19 19:46:00,
2013-07-19 13:51:00,79.5,46.2,29.82,NNW,346,6.0,18.0,31,0.00,,---,0.00,VWS V13.00,2013-07-19 19:51:00,
2013-07-19 13:56:00,80.6,46.3,29.83,WNW,290,14.0,19.0,30,0.00,,---,0.00,VWS V13.00,2013-07-19 19:56:00,
2013-07-19 14:01:00,81.4,47.0,29.83,NW,323,6.0,19.0,30,0.00,,---,0.00,VWS V13.00,2013-07-19 20:01:00,
2013-07-19 14:06:00,81.9,45.6,29.83,North,349,2.0,19.0,28,0.00,,---,0.00,VWS V13.00,2013-07-19 20:06:00,
2013-07-19 14:11:00,82.3,46.0,29.82,North,9,11.0,11.0,28,0.00,,---,0.00,VWS V13.00,2013-07-19 20:11:00,
2013-07-19 14:16:00,82.7,47.2,29.82,NNW,327,6.0,15.0,29,0.00,,---,0.00,VWS V13.00,2013-07-19 20:16:00,
2013-07-19 14:21:00,82.6,48.1,29.82,NW,309,9.0,15.0,30,0.00,,---,0.00,VWS V13.00,2013-07-19 20:21:00,
2013-07-19 14:26:00,82.2,47.7,29.81,NW,306,6.0,15.0,30,0.00,,---,0.00,VWS V13.00,2013-07-19 20:26:00,
2013-07-19 14:31:00,82.4,46.1,29.81,NNW,337,8.0,17.0,28,0.00,,---,0.00,VWS V13.00,2013-07-19 20:31:00,
2013-07-19 14:36:00,82.9,47.4,29.81,NNW,348,15.0,17.0,29,0.00,,---,0.00,VWS V13.00,2013-07-19 20:36:00,
2013-07-19 14:41:00,83.1,44.7,29.81,NNW,330,9.0,16.0,26,0.00,,---,0.00,VWS V13.00,2013-07-19 20:41:00,
2013-07-19 14:46:00,83.3,44.9,29.81,WNW,301,11.0,16.0,26,0.00,,---,0.00,VWS V13.00,2013-07-19 20:46:00,
2013-07-19 14:51:00,83.3,41.7,29.81,NW,316,6.0,18.0,23,0.00,,---,0.00,VWS V13.00,2013-07-19 20:51:00,
2013-07-19 14:56:00,83.5,45.0,29.82,NW,308,9.0,18.0,26,0.00,,---,0.00,VWS V13.00,2013-07-19 20:56:00,
2013-07-19 15:01:00,83.6,41.9,29.82,NW,315,19.0,21.0,23,0.00,,---,0.00,VWS V13.00,2013-07-19 21:01:00,
2013-07-19 15:06:00,83.5,45.0,29.82,NW,305,21.0,23.0,26,0.00,,---,0.00,VWS V13.00,2013-07-19 21:06:00,
2013-07-19 15:11:00,83.9,43.3,29.80,NW,309,17.0,23.0,24,0.00,,---,0.00,VWS V13.00,2013-07-19 21:11:00,
2013-07-19 15:16:00,84.0,41.1,29.80,NW,325,16.0,23.0,22,0.00,,---,0.00,VWS V13.00,2013-07-19 21:16:00,
2013-07-19 15:21:00,83.9,39.8,29.80,WNW,295,10.0,23.0,21,0.00,,---,0.00,VWS V13.00,2013-07-19 21:21:00,
2013-07-19 15:26:00,84.0,42.3,29.81,WNW,299,14.0,23.0,23,0.00,,---,0.00,VWS V13.00,2013-07-19 21:26:00,
2013-07-19 15:31:00,84.2,42.4,29.81,NNW,333,10.0,23.0,23,0.00,,---,0.00,VWS V13.00,2013-07-19 21:31:00,
2013-07-19 15:36:00,84.4,44.8,29.81,NW,318,13.0,23.0,25,0.00,,---,0.00,VWS V13.00,2013-07-19 21:36:00,
2013-07-19 15:41:00,84.3,47.7,29.80,NNW,336,17.0,20.0,28,0.00,,---,0.00,VWS V13.00,2013-07-19 21:41:00,
2013-07-19 15:46:00,83.9,44.3,29.80,NNW,327,12.0,22.0,25,0.00,,---,0.00,VWS V13.00,2013-07-19 21:46:00,
2013-07-19 15:51:00,83.6,41.9,29.80,NW,325,4.0,22.0,23,0.00,,---,0.00,VWS V13.00,2013-07-19 21:51:00,
2013-07-19 15:56:00,83.6,45.1,29.80,NW,310,9.0,22.0,26,0.00,,---,0.00,VWS V13.00,2013-07-19 21:56:00,
2013-07-19 16:01:00,83.6,45.1,29.80,NW,323,5.0,22.0,26,0.00,,---,0.00,VWS V13.00,2013-07-19 22:01:00,
2013-07-19 16:05:00,83.7,44.2,29.80,NNW,333,9.0,22.0,25,0.00,,---,0.00,VWS V13.00,2013-07-19 22:05:00,
2013-07-19 16:10:00,83.8,43.2,29.80,NW,325,7.0,16.0,24,0.00,,---,0.00,VWS V13.00,2013-07-19 22:10:00,
2013-07-19 16:15:00,84.1,47.5,29.80,NNW,344,18.0,20.0,28,0.00,,---,0.00,VWS V13.00,2013-07-19 22:15:00,
2013-07-19 16:20:00,83.8,45.3,29.80,NNW,328,9.0,20.0,26,0.00,,---,0.00,VWS V13.00,2013-07-19 22:20:00,
2013-07-19 16:25:00,83.9,48.3,29.79,NW,314,7.0,20.0,29,0.00,,---,0.00,VWS V13.00,2013-07-19 22:25:00,
2013-07-19 16:30:00,84.0,44.4,29.79,NNW,342,8.0,20.0,25,0.00,,---,0.00,VWS V13.00,2013-07-19 22:30:00,
2013-07-19 16:35:00,83.8,44.3,29.79,NW,313,7.0,20.0,25,0.00,,---,0.00,VWS V13.00,2013-07-19 22:35:00,
2013-07-19 16:40:00,83.6,43.0,29.79,NNW,330,11.0,16.0,24,0.00,,---,0.00,VWS V13.00,2013-07-19 22:40:00,
2013-07-19 16:45:00,83.5,41.8,29.79,NNW,331,11.0,18.0,23,0.00,,---,0.00,VWS V13.00,2013-07-19 22:45:00,
2013-07-19 16:50:00,83.6,43.0,29.79,WNW,299,7.0,18.0,24,0.00,,---,0.00,VWS V13.00,2013-07-19 22:50:00,
2013-07-19 16:55:00,83.7,44.2,29.80,NW,311,11.0,19.0,25,0.00,,---,0.00,VWS V13.00,2013-07-19 22:55:00,
2013-07-19 17:01:00,83.8,42.1,29.80,NW,321,7.0,21.0,23,0.00,,---,0.00,VWS V13.00,2013-07-19 23:01:00,
2013-07-19 17:05:00,83.7,42.0,29.80,NW,315,6.0,21.0,23,0.00,,---,0.00,VWS V13.00,2013-07-19 23:05:00,
2013-07-19 17:10:00,83.6,44.1,29.80,NW,321,11.0,16.0,25,0.00,,---,0.00,VWS V13.00,2013-07-19 23:10:00,
2013-07-19 17:15:00,83.6,41.9,29.80,NNW,344,11.0,19.0,23,0.00,,---,0.00,VWS V13.00,2013-07-19 23:15:00,
2013-07-19 17:20:00,83.5,40.7,29.80,NNW,343,11.0,19.0,22,0.00,,---,0.00,VWS V13.00,2013-07-19 23:20:00,
2013-07-19 17:25:00,83.4,40.6,29.80,NW,321,12.0,19.0,22,0.00,,---,0.00,VWS V13.00,2013-07-19 23:25:00,
2013-07-19 17:30:00,83.4,39.4,29.80,NNW,337,9.0,19.0,21,0.00,,---,0.00,VWS V13.00,2013-07-19 23:30:00,
2013-07-19 17:35:00,83.4,42.9,29.80,NW,319,12.0,19.0,24,0.00,,---,0.00,VWS V13.00,2013-07-19 23:35:00,
2013-07-19 17:40:00,83.4,42.9,29.80,NW,313,13.0,15.0,24,0.00,,---,0.00,VWS V13.00,2013-07-19 23:40:00,
2013-07-19 17:45:00,83.3,40.5,29.80,NW,315,9.0,15.0,22,0.00,,---,0.00,VWS V13.00,2013-07-19 23:45:00,
2013-07-19 17:50:00,83.2,45.8,29.80,North,360,6.0,15.0,27,0.00,,---,0.00,VWS V13.00,2013-07-19 23:50:00,
2013-07-19 17:55:00,83.2,43.8,29.78,NW,321,11.0,15.0,25,0.00,,---,0.00,VWS V13.00,2013-07-19 23:55:00,
2013-07-19 18:00:00,82.9,44.5,29.78,NNW,327,7.0,15.0,26,0.00,,---,0.00,VWS V13.00,2013-07-20 00:00:00,
2013-07-19 18:05:00,82.8,43.4,29.78,North,355,11.0,15.0,25,0.00,,---,0.00,VWS V13.00,2013-07-20 00:05:00,
2013-07-19 18:10:00,82.6,45.3,29.78,NNE,18,6.0,11.0,27,0.00,,---,0.00,VWS V13.00,2013-07-20 00:10:00,
2013-07-19 18:15:00,82.6,46.2,29.78,North,11,4.0,11.0,28,0.00,,---,0.00,VWS V13.00,2013-07-20 00:15:00,
2013-07-19 18:20:00,82.5,43.2,29.78,North,5,6.0,12.0,25,0.00,,---,0.00,VWS V13.00,2013-07-20 00:20:00,
2013-07-19 18:25:00,82.4,45.1,29.78,North,355,7.0,12.0,27,0.00,,---,0.00,VWS V13.00,2013-07-20 00:25:00,
2013-07-19 18:30:00,82.4,45.1,29.78,NW,325,2.0,12.0,27,0.00,,---,0.00,VWS V13.00,2013-07-20 00:30:00,
2013-07-19 18:35:00,82.3,44.0,29.78,North,355,10.0,14.0,26,0.00,,---,0.00,VWS V13.00,2013-07-20 00:35:00,
2013-07-19 18:40:00,82.0,42.8,29.78,North,355,6.0,10.0,25,0.00,,---,0.00,VWS V13.00,2013-07-20 00:40:00,
2013-07-19 18:45:00,81.8,44.6,29.78,North,5,10.0,11.0,27,0.00,,---,0.00,VWS V13.00,2013-07-20 00:45:00,
2013-07-19 18:50:00,81.5,43.3,29.78,North,5,7.0,15.0,26,0.00,,---,0.00,VWS V13.00,2013-07-20 00:50:00,
2013-07-19 18:55:00,81.2,43.1,29.76,North,360,9.0,15.0,26,0.00,,---,0.00,VWS V13.00,2013-07-20 00:55:00,
2013-07-19 19:00:00,81.1,42.0,29.76,North,355,6.0,15.0,25,0.00,,---,0.00,VWS V13.00,2013-07-20 01:00:00,
2013-07-19 19:05:00,81.0,42.9,29.76,North,350,7.0,15.0,26,0.00,,---,0.00,VWS V13.00,2013-07-20 01:05:00,
2013-07-19 19:10:00,80.9,43.8,29.76,North,360,5.0,7.0,27,0.00,,---,0.00,VWS V13.00,2013-07-20 01:10:00,
2013-07-19 19:15:00,80.8,44.7,29.76,North,350,5.0,14.0,28,0.00,,---,0.00,VWS V13.00,2013-07-20 01:15:00,
2013-07-19 19:20:00,80.5,44.4,29.76,North,5,11.0,14.0,28,0.00,,---,0.00,VWS V13.00,2013-07-20 01:20:00,
2013-07-19 19:25:00,80.2,43.2,29.77,NNW,346,10.0,14.0,27,0.00,,---,0.00,VWS V13.00,2013-07-20 01:25:00,
2013-07-19 19:30:00,80.0,44.0,29.77,NNW,346,6.0,14.0,28,0.00,,---,0.00,VWS V13.00,2013-07-20 01:30:00,
2013-07-19 19:35:00,79.8,45.6,29.77,North,355,4.0,14.0,30,0.00,,---,0.00,VWS V13.00,2013-07-20 01:35:00,
2013-07-19 19:40:00,79.6,43.7,29.78,North,355,5.0,11.0,28,0.00,,---,0.00,VWS V13.00,2013-07-20 01:40:00,
2013-07-19 19:45:00,79.4,44.4,29.78,North,349,6.0,11.0,29,0.00,,---,0.00,VWS V13.00,2013-07-20 01:45:00,
2013-07-19 19:50:00,79.2,44.2,29.78,North,349,7.0,11.0,29,0.00,,---,0.00,VWS V13.00,2013-07-20 01:50:00,
2013-07-19 19:55:00,79.0,43.2,29.76,North,351,5.0,11.0,28,0.00,,---,0.00,VWS V13.00,2013-07-20 01:55:00,
2013-07-19 20:00:00,78.7,45.6,29.76,North,360,6.0,11.0,31,0.00,,---,0.00,VWS V13.00,2013-07-20 02:00:00,
2013-07-19 20:05:00,78.5,44.5,29.76,North,355,4.0,11.0,30,0.00,,---,0.00,VWS V13.00,2013-07-20 02:05:00,
2013-07-19 20:10:00,78.1,45.0,29.76,North,355,2.0,4.0,31,0.00,,---,0.00,VWS V13.00,2013-07-20 02:10:00,
2013-07-19 20:15:00,77.9,44.9,29.76,North,355,1.0,4.0,31,0.00,,---,0.00,VWS V13.00,2013-07-20 02:15:00,
2013-07-19 20:20:00,77.8,44.8,29.76,North,355,1.0,4.0,31,0.00,,---,0.00,VWS V13.00,2013-07-20 02:20:00,
2013-07-19 20:25:00,77.7,45.5,29.76,North,355,1.0,4.0,32,0.00,,---,0.00,VWS V13.00,2013-07-20 02:25:00,
2013-07-19 20:30:00,77.6,44.6,29.76,North,355,0.0,4.0,31,0.00,,---,0.00,VWS V13.00,2013-07-20 02:30:00,
2013-07-19 20:35:00,77.6,44.6,29.76,North,355,1.0,4.0,31,0.00,,---,0.00,VWS V13.00,2013-07-20 02:35:00,
2013-07-19 20:40:00,77.5,44.5,29.76,North,355,1.0,2.0,31,0.00,,---,0.00,VWS V13.00,2013-07-20 02:40:00,
2013-07-19 20:45:00,77.3,44.3,29.76,North,355,2.0,4.0,31,0.00,,---,0.00,VWS V13.00,2013-07-20 02:45:00,
2013-07-19 20:50:00,77.2,44.2,29.76,North,355,0.0,4.0,31,0.00,,---,0.00,VWS V13.00,2013-07-20 02:50:00,
2013-07-19 20:55:00,77.0,44.9,29.73,North,355,0.0,4.0,32,0.00,,---,0.00,VWS V13.00,2013-07-20 02:55:00,
2013-07-19 21:00:00,76.7,44.7,29.73,North,355,0.0,4.0,32,0.00,,---,0.00,VWS V13.00,2013-07-20 03:00:00,
2013-07-19 21:05:00,76.3,45.9,29.73,North,355,1.0,4.0,34,0.00,,---,0.00,VWS V13.00,2013-07-20 03:05:00,
2013-07-19 21:10:00,75.7,45.4,29.73,North,355,0.0,1.0,34,0.00,,---,0.00,VWS V13.00,2013-07-20 03:10:00,
2013-07-19 21:15:00,75.1,45.6,29.73,North,355,1.0,2.0,35,0.00,,---,0.00,VWS V13.00,2013-07-20 03:15:00,
2013-07-19 21:20:00,74.5,45.8,29.73,North,355,0.0,2.0,36,0.00,,---,0.00,VWS V13.00,2013-07-20 03:20:00,
2013-07-19 21:25:00,73.4,47.6,29.75,North,360,3.0,3.0,40,0.00,,---,0.00,VWS V13.00,2013-07-20 03:25:00,
2013-07-19 21:30:00,71.4,46.5,29.75,North,360,2.0,4.0,41,0.00,,---,0.00,VWS V13.00,2013-07-20 03:30:00,
2013-07-19 21:35:00,70.1,46.0,29.75,North,360,0.0,4.0,42,0.00,,---,0.00,VWS V13.00,2013-07-20 03:35:00,
2013-07-19 21:40:00,69.4,46.0,29.77,North,360,0.0,0.0,43,0.00,,---,0.00,VWS V13.00,2013-07-20 03:40:00,
2013-07-19 21:45:00,69.0,46.2,29.77,North,360,0.0,0.0,44,0.00,,---,0.00,VWS V13.00,2013-07-20 03:45:00,
2013-07-19 21:50:00,68.6,47.0,29.77,North,360,0.0,0.0,46,0.00,,---,0.00,VWS V13.00,2013-07-20 03:50:00,
2013-07-19 21:55:00,68.1,47.7,29.76,North,360,0.0,0.0,48,0.00,,---,0.00,VWS V13.00,2013-07-20 03:55:00,
2013-07-19 22:00:00,67.4,46.5,29.76,North,360,0.0,0.0,47,0.00,,---,0.00,VWS V13.00,2013-07-20 04:00:00,
2013-07-19 22:01:00,67.4,47.6,29.76,North,360,0.0,0.0,49,0.00,,---,0.00,VWS V13.00,2013-07-20 04:01:00,
2013-07-19 22:06:00,67.0,46.1,29.76,North,360,0.0,0.0,47,0.00,,---,0.00,VWS V13.00,2013-07-20 04:06:00,
2013-07-19 22:11:00,66.7,46.4,29.77,North,360,0.0,0.0,48,0.00,,---,0.00,VWS V13.00,2013-07-20 04:11:00,
2013-07-19 22:16:00,66.4,46.1,29.77,North,360,0.0,0.0,48,0.00,,---,0.00,VWS V13.00,2013-07-20 04:16:00,
2013-07-19 22:21:00,65.9,46.8,29.77,North,360,0.0,0.0,50,0.00,,---,0.00,VWS V13.00,2013-07-20 04:21:00,
2013-07-19 22:26:00,64.9,47.9,29.78,North,360,0.0,1.0,54,0.00,,---,0.00,VWS V13.00,2013-07-20 04:26:00,
2013-07-19 22:31:00,63.2,48.2,29.78,NNE,17,0.0,1.0,58,0.00,,---,0.00,VWS V13.00,2013-07-20 04:31:00,
2013-07-19 22:36:00,61.9,48.3,29.78,North,11,0.0,1.0,61,0.00,,---,0.00,VWS V13.00,2013-07-20 04:36:00,
2013-07-19 22:41:00,60.9,47.8,29.80,North,11,0.0,0.0,62,0.00,,---,0.00,VWS V13.00,2013-07-20 04:41:00,
2013-07-19 22:46:00,59.9,47.7,29.80,NNE,18,4.0,6.0,64,0.00,,---,0.00,VWS V13.00,2013-07-20 04:46:00,
2013-07-19 22:51:00,59.0,47.3,29.80,ENE,57,5.0,6.0,65,0.00,,---,0.00,VWS V13.00,2013-07-20 04:51:00,
2013-07-19 22:56:00,58.2,47.3,29.80,ESE,118,4.0,7.0,67,0.00,,---,0.00,VWS V13.00,2013-07-20 04:56:00,
2013-07-19 23:01:00,57.8,46.9,29.80,SE,143,7.0,10.0,67,0.00,,---,0.00,VWS V13.00,2013-07-20 05:01:00,
2013-07-19 23:06:00,57.7,46.4,29.80,SE,141,5.0,10.0,66,0.00,,---,0.00,VWS V13.00,2013-07-20 05:06:00,
2013-07-19 23:11:00,57.6,46.3,29.80,SE,142,4.0,5.0,66,0.00,,---,0.00,VWS V13.00,2013-07-20 05:11:00,
2013-07-19 23:16:00,57.6,45.9,29.80,SE,142,5.0,7.0,65,0.00,,---,0.00,VWS V13.00,2013-07-20 05:16:00,
2013-07-19 23:21:00,57.6,46.3,29.80,SE,141,4.0,7.0,66,0.00,,---,0.00,VWS V13.00,2013-07-20 05:21:00,
2013-07-19 23:26:00,57.2,46.8,29.79,SE,142,6.0,7.0,68,0.00,,---,0.00,VWS V13.00,2013-07-20 05:26:00,
2013-07-19 23:31:00,56.8,46.0,29.79,SE,137,6.0,9.0,67,0.00,,---,0.00,VWS V13.00,2013-07-20 05:31:00,
2013-07-19 23:36:00,56.7,46.3,29.79,SE,137,4.0,9.0,68,0.00,,---,0.00,VWS V13.00,2013-07-20 05:36:00,
2013-07-19 23:41:00,56.5,46.1,29.80,SE,137,4.0,6.0,68,0.00,,---,0.00,VWS V13.00,2013-07-20 05:41:00,
2013-07-19 23:46:00,56.2,45.8,29.80,SE,134,8.0,10.0,68,0.00,,---,0.00,VWS V13.00,2013-07-20 05:46:00,
2013-07-19 23:51:00,56.3,45.9,29.80,SE,139,10.0,12.0,68,0.00,,---,0.00,VWS V13.00,2013-07-20 05:51:00,
2013-07-19 23:56:00,56.2,45.8,29.81,SSE,148,11.0,12.0,68,0.00,,---,0.00,VWS V13.00,2013-07-20 05:56:00,